Regional Weather Roundup
Issued by NWS

Home | Current Version | Previous Version | Graphics & Text | Print | Product List | Glossary On
Versions: 1 2 3 4 5 6 7 8 9 10 11 12 13 14 15 16 17 18 19 20 21 22 23 24 25 26 27 28 29 30 31 32 33 34 35 36 37 38 39 40 41 42 43 44 45 46 47 48 49 50
000
ASUS43 KIND 241259
RWRIN

WEATHER ROUNDUP FOR INDIANA
NATIONAL WEATHER SERVICE INDIANAPOLIS IN
800 AM EST SAT FEB 24 2018

NOTE: "FAIR" INDICATES FEW OR NO CLOUDS BELOW 12,000 FEET WITH NO
SIGNIFICANT WEATHER AND/OR OBSTRUCTIONS TO VISIBILITY.

* - STATION DOES NOT REPORT WEATHER SUCH AS PRECIPITATION OR FOG.

+ - STATION NOT QUALITY CONTROLLED BY THE NATIONAL WEATHER SERVICE.
    USE DATA WITH CAUTION...ESPECIALLY DEWPOINT AND RELATIVE
    HUMIDITY OBSERVATIONS.

INZ001>003-010>013-019-020-241400-
NORTHWEST INDIANA

CITY           SKY/WX    TMP DP  RH WIND       PRES   REMARKS
GARY /AIRPORT/ CLOUDY    36  32  87 NE10      30.18F WCI  28
MONTICELLO +   DRIZZLE   36  35  95 E7        30.15F WCI  30
RENSSELAER +   DRIZZLE   36  32  87 NE12      30.15F WCI  27

$$

LMZ046-743>745-241400-
SOUTHERN LAKE MICHIGAN

STATION/POSITION TIME  TEMP    WIND        PRES    WAVE
                       AIR SEA DIR/SP/G            HT
                 (UTC) (F)     (DEG/KT/KT) (MB)    (FT)
BURNS HARBOR     1204   34      70/ 11/ 18 1022.4
MICHIGAN CITY    1230   34      40/ 11/ 11   N/A

$$

INZ004-005-014>016-021>024-241400-
NORTH CENTRAL INDIANA

CITY           SKY/WX    TMP DP  RH WIND       PRES   REMARKS
GOSHEN         CLOUDY    36  32  85 E9        30.17F WCI  29
PERU/GRISSOM   LGT RAIN  38  38 100 NE9       30.14F WCI  31
SOUTH BEND     CLOUDY    35  29  78 E5        30.19R WCI  31
WARSAW +       LGT RAIN  34  34 100 NE10      30.17S WCI  26

$$

INZ006>009-017-018-025>027-241400-
NORTHEAST INDIANA

CITY           SKY/WX    TMP DP  RH WIND       PRES   REMARKS
AUBURN +       LGT RAIN  36  34  93 NE8       30.20R WCI  29
FORT WAYNE     LGT RAIN  38  36  92 NE9       30.18R WCI  31
KENDALLVILLE + CLOUDY    35  33  92 E8        30.18R WCI  29

$$

INZ028-029-035-036-043>045-051>053-241400-
WEST CENTRAL INDIANA

CITY           SKY/WX    TMP DP  RH WIND       PRES   REMARKS
GREENCASTLE +  LGT RAIN  39  39 100 E6        30.12F WCI  35
LAFAYETTE      CLOUDY    38  38 100 NE10      30.13F FOG     WCI  31
TERRE HAUTE    RAIN      42  42 100 E8        30.10F FOG

$$

INZ030>032-037>040-046>048-054>057-064-065-241400-
CENTRAL INDIANA

CITY           SKY/WX    TMP DP  RH WIND       PRES   REMARKS
COLUMBUS       LGT RAIN  45 N/A N/A N8        30.15R FOG
GREENWOOD *+   CLOUDY    40 -48   2 NE5       30.13S WCI  37
INDIANAPOLIS   LGT RAIN  41  41 100 E6        30.13S
-EAGLE CREEK   LGT RAIN  42  39  89 E5        30.13S
KOKOMO +       LGT RAIN  38  37  97 E9        30.15S FOG     WCI  31
MT COMFORT *+  CLOUDY    41  41 100 E6        30.13S
SHELBYVILLE    RAIN      44  42  93 E7        30.13R

$$

INZ033-034-041-042-049-050-058-059-241400-
EAST CENTRAL INDIANA

CITY           SKY/WX    TMP DP  RH WIND       PRES   REMARKS
MUNCIE         LGT RAIN  43  40  89 E8        30.14S FOG
RICHMOND +     RAIN      41  41 100 NE10      30.13F

$$

INZ060-061-067>069-081>083-085>088-241400-
SOUTHWEST INDIANA

CITY           SKY/WX    TMP DP  RH WIND       PRES   REMARKS
EVANSVILLE     LGT RAIN  48  48 100 N7        30.07F FOG
HUNTINGBURG +  LGT RAIN  48  47  96 N12       30.09S FOG

$$

INZ062-063-066-070>080-084-089>092-241400-
SOUTH CENTRAL AND SOUTHEAST INDIANA

CITY           SKY/WX    TMP DP  RH WIND       PRES   REMARKS
BLOOMINGTON    RAIN      45  43  93 E8        30.10F FOG
FRENCH LICK *+ CLOUDY    45 N/A N/A NE12      30.07F
MADISON *+     CLOUDY    46  46 100 N5        30.12R
SEYMOUR +        N/A    N/A N/A N/A MISG      30.12R

$$





USA.gov is the U.S. government's official web portal to all federal, state and local government web resources and services.